![]() |
EMODnet Physics ERDDAP
Easier access to scientific data |
log in|
Brought to you by EMODnet Physics |
| Dataset Title: | NDBC - Collection of dew point temperature (DEWT) TimeSeries - IN SITU MultiPointTimeSeriesObservation
|
| Institution: | NDBC (Dataset ID: TS_DEWT_NDBC) |
| Information: | Summary
| License
| FGDC
| ISO 19115
| Metadata
| Background
| Subset
| Data Access Form
| Make a graph
|
| Name | Last modified | Size | Description | |
|---|---|---|---|---|
| Parent Directory | - | - | ||
| 44027_TS_DEWT_012005.nc | 24-Dec-2024 04:38 | 1264065 | ||
| 44027_TS_DEWT_012006.nc | 16-Jan-2026 19:38 | 4747650 | ||
| 44027_TS_DEWT_012007.nc | 16-Jan-2026 20:37 | 1144799 | ||
| 44027_TS_DEWT_012008.nc | 16-Jan-2026 20:41 | 1016028 | ||
| 44027_TS_DEWT_012009.nc | 16-Jan-2026 20:45 | 1111095 | ||
| 44027_TS_DEWT_012010.nc | 16-Jan-2026 20:48 | 914931 | ||
| 44027_TS_DEWT_012012.nc | 16-Jan-2026 20:52 | 1260727 | ||
| 44027_TS_DEWT_012014.nc | 16-Jan-2026 20:58 | 1260157 | ||
| 44027_TS_DEWT_012015.nc | 16-Jan-2026 21:01 | 5451733 | ||
| 44027_TS_DEWT_012016.nc | 16-Jan-2026 21:03 | 996487 | ||
| 44027_TS_DEWT_012020.nc | 16-Jan-2026 21:15 | 1111918 | ||
| 44027_TS_DEWT_012022.nc | 16-Jan-2026 21:20 | 1109928 | ||
| 44027_TS_DEWT_012023.nc | 16-Jan-2026 21:24 | 985978 | ||
| 44027_TS_DEWT_022005.nc | 24-Dec-2024 04:38 | 1108046 | ||
| 44027_TS_DEWT_022006.nc | 16-Jan-2026 20:32 | 1111212 | ||
| 44027_TS_DEWT_022007.nc | 16-Jan-2026 20:37 | 4439998 | ||
| 44027_TS_DEWT_022008.nc | 16-Jan-2026 20:42 | 1145076 | ||
| 44027_TS_DEWT_022009.nc | 16-Jan-2026 20:45 | 1263028 | ||
| 44027_TS_DEWT_022010.nc | 16-Jan-2026 20:49 | 1263626 | ||
| 44027_TS_DEWT_022015.nc | 16-Jan-2026 21:01 | 1115303 | ||
| 44027_TS_DEWT_022016.nc | 16-Jan-2026 21:04 | 1264956 | ||
| 44027_TS_DEWT_022020.nc | 16-Jan-2026 21:15 | 1262008 | ||
| 44027_TS_DEWT_022022.nc | 16-Jan-2026 21:20 | 5296742 | ||
| 44027_TS_DEWT_022023.nc | 16-Jan-2026 21:25 | 996122 | ||
| 44027_TS_DEWT_032005.nc | 24-Dec-2024 04:38 | 1113174 | ||
| 44027_TS_DEWT_032006.nc | 16-Jan-2026 20:33 | 1029591 | ||
| 44027_TS_DEWT_032007.nc | 16-Jan-2026 20:37 | 1114107 | ||
| 44027_TS_DEWT_032008.nc | 16-Jan-2026 20:42 | 1114844 | ||
| 44027_TS_DEWT_032009.nc | 16-Jan-2026 20:46 | 1113997 | ||
| 44027_TS_DEWT_032010.nc | 16-Jan-2026 20:49 | 5538545 | ||
| 44027_TS_DEWT_032015.nc | 16-Jan-2026 21:02 | 5269394 | ||
| 44027_TS_DEWT_032016.nc | 16-Jan-2026 21:04 | 639339 | ||
| 44027_TS_DEWT_032020.nc | 16-Jan-2026 21:15 | 917984 | ||
| 44027_TS_DEWT_032022.nc | 16-Jan-2026 21:20 | 1268303 | ||
| 44027_TS_DEWT_042005.nc | 24-Dec-2024 04:38 | 1034625 | ||
| 44027_TS_DEWT_042006.nc | 16-Jan-2026 20:34 | 1265724 | ||
| 44027_TS_DEWT_042007.nc | 16-Jan-2026 20:38 | 1264554 | ||
| 44027_TS_DEWT_042008.nc | 16-Jan-2026 20:42 | 1022170 | ||
| 44027_TS_DEWT_042009.nc | 16-Jan-2026 20:46 | 5425600 | ||
| 44027_TS_DEWT_042010.nc | 16-Jan-2026 20:49 | 5020536 | ||
| 44027_TS_DEWT_042013.nc | 16-Jan-2026 20:55 | 429676 | ||
| 44027_TS_DEWT_042016.nc | 16-Jan-2026 21:04 | 429766 | ||
| 44027_TS_DEWT_042018.nc | 16-Jan-2026 21:10 | 429691 | ||
| 44027_TS_DEWT_042020.nc | 16-Jan-2026 21:15 | 429638 | ||
| 44027_TS_DEWT_042022.nc | 16-Jan-2026 21:20 | 429169 | ||
| 44027_TS_DEWT_052003.nc | 24-Dec-2024 04:35 | 429664 | ||
| 44027_TS_DEWT_052004.nc | 24-Dec-2024 04:37 | 429626 | ||
| 44027_TS_DEWT_052006.nc | 16-Jan-2026 20:34 | 429690 | ||
| 44027_TS_DEWT_052007.nc | 16-Jan-2026 20:38 | 429688 | ||
| 44027_TS_DEWT_052008.nc | 16-Jan-2026 20:43 | 429694 | ||
| 44027_TS_DEWT_052010.nc | 16-Jan-2026 20:50 | 429688 | ||
| 44027_TS_DEWT_052013.nc | 16-Jan-2026 20:55 | 429365 | ||
| 44027_TS_DEWT_052016.nc | 16-Jan-2026 21:04 | 429693 | ||
| 44027_TS_DEWT_052018.nc | 16-Jan-2026 21:10 | 429701 | ||
| 44027_TS_DEWT_052020.nc | 16-Jan-2026 21:15 | 429688 | ||
| 44027_TS_DEWT_052022.nc | 16-Jan-2026 21:21 | 429693 | ||
| 44027_TS_DEWT_062003.nc | 24-Dec-2024 04:35 | 429694 | ||
| 44027_TS_DEWT_062004.nc | 24-Dec-2024 04:37 | 429995 | ||
| 44027_TS_DEWT_062006.nc | 16-Jan-2026 20:34 | 429911 | ||
| 44027_TS_DEWT_062007.nc | 16-Jan-2026 20:38 | 429351 | ||
| 44027_TS_DEWT_062008.nc | 16-Jan-2026 20:43 | 428240 | ||
| 44027_TS_DEWT_062010.nc | 16-Jan-2026 20:50 | 429861 | ||
| 44027_TS_DEWT_062013.nc | 16-Jan-2026 20:55 | 428121 | ||
| 44027_TS_DEWT_062016.nc | 16-Jan-2026 21:05 | 429890 | ||
| 44027_TS_DEWT_062018.nc | 16-Jan-2026 21:11 | 429914 | ||
| 44027_TS_DEWT_062019.nc | 16-Jan-2026 21:13 | 429895 | ||
| 44027_TS_DEWT_062020.nc | 16-Jan-2026 21:16 | 429913 | ||
| 44027_TS_DEWT_062021.nc | 16-Jan-2026 21:18 | 429918 | ||
| 44027_TS_DEWT_062022.nc | 16-Jan-2026 21:21 | 429910 | ||
| 44027_TS_DEWT_072003.nc | 24-Dec-2024 04:35 | 429914 | ||
| 44027_TS_DEWT_072004.nc | 24-Dec-2024 04:37 | 429912 | ||
| 44027_TS_DEWT_072005.nc | 24-Dec-2024 04:39 | 429911 | ||
| 44027_TS_DEWT_072006.nc | 16-Jan-2026 20:35 | 429806 | ||
| 44027_TS_DEWT_072007.nc | 16-Jan-2026 20:39 | 428951 | ||
| 44027_TS_DEWT_072008.nc | 16-Jan-2026 20:43 | 429915 | ||
| 44027_TS_DEWT_072010.nc | 16-Jan-2026 20:50 | 429914 | ||
| 44027_TS_DEWT_072013.nc | 16-Jan-2026 20:56 | 429908 | ||
| 44027_TS_DEWT_072016.nc | 16-Jan-2026 21:06 | 428926 | ||
| 44027_TS_DEWT_072018.nc | 16-Jan-2026 21:11 | 428688 | ||
| 44027_TS_DEWT_072019.nc | 16-Jan-2026 21:14 | 429039 | ||
| 44027_TS_DEWT_072021.nc | 16-Jan-2026 21:18 | 428190 | ||
| 44027_TS_DEWT_082003.nc | 24-Dec-2024 04:35 | 428385 | ||
| 44027_TS_DEWT_082004.nc | 24-Dec-2024 04:37 | 429024 | ||
| 44027_TS_DEWT_082006.nc | 16-Jan-2026 20:35 | 424619 | ||
| 44027_TS_DEWT_082007.nc | 16-Jan-2026 20:40 | 428529 | ||
| 44027_TS_DEWT_082008.nc | 16-Jan-2026 20:44 | 428693 | ||
| 44027_TS_DEWT_082010.nc | 16-Jan-2026 20:51 | 429038 | ||
| 44027_TS_DEWT_082013.nc | 16-Jan-2026 20:56 | 424407 | ||
| 44027_TS_DEWT_082016.nc | 16-Jan-2026 21:06 | 428692 | ||
| 44027_TS_DEWT_082018.nc | 16-Jan-2026 21:11 | 428690 | ||
| 44027_TS_DEWT_082019.nc | 16-Jan-2026 21:14 | 429036 | ||
| 44027_TS_DEWT_082021.nc | 16-Jan-2026 21:18 | 428693 | ||
| 44027_TS_DEWT_092003.nc | 24-Dec-2024 04:36 | 428690 | ||
| 44027_TS_DEWT_092004.nc | 24-Dec-2024 04:37 | 428689 | ||
| 44027_TS_DEWT_092006.nc | 16-Jan-2026 20:35 | 429212 | ||
| 44027_TS_DEWT_092007.nc | 16-Jan-2026 20:40 | 428885 | ||
| 44027_TS_DEWT_092008.nc | 16-Jan-2026 20:44 | 427466 | ||
| 44027_TS_DEWT_092010.nc | 16-Jan-2026 20:51 | 427150 | ||
| 44027_TS_DEWT_092013.nc | 16-Jan-2026 20:56 | 428033 | ||
| 44027_TS_DEWT_092014.nc | 16-Jan-2026 21:00 | 427771 | ||
| 44027_TS_DEWT_092016.nc | 16-Jan-2026 21:06 | 428885 | ||
| 44027_TS_DEWT_092018.nc | 16-Jan-2026 21:11 | 428882 | ||
| 44027_TS_DEWT_092019.nc | 16-Jan-2026 21:14 | 429230 | ||
| 44027_TS_DEWT_092021.nc | 16-Jan-2026 21:19 | 428883 | ||
| 44027_TS_DEWT_092022.nc | 16-Jan-2026 21:21 | 428879 | ||
| 44027_TS_DEWT_102003.nc | 24-Dec-2024 04:36 | 428883 | ||
| 44027_TS_DEWT_102004.nc | 24-Dec-2024 04:37 | 429232 | ||
| 44027_TS_DEWT_102006.nc | 16-Jan-2026 20:36 | 428877 | ||
| 44027_TS_DEWT_102007.nc | 16-Jan-2026 20:40 | 428885 | ||
| 44027_TS_DEWT_102008.nc | 16-Jan-2026 20:44 | 428883 | ||
| 44027_TS_DEWT_102013.nc | 16-Jan-2026 20:57 | 429228 | ||
| 44027_TS_DEWT_102014.nc | 16-Jan-2026 21:00 | 428887 | ||
| 44027_TS_DEWT_102015.nc | 16-Jan-2026 21:02 | 428880 | ||
| 44027_TS_DEWT_102016.nc | 16-Jan-2026 21:07 | 428883 | ||
| 44027_TS_DEWT_102018.nc | 16-Jan-2026 21:12 | 429683 | ||
| 44027_TS_DEWT_102019.nc | 16-Jan-2026 21:14 | 428280 | ||
| 44027_TS_DEWT_102021.nc | 16-Jan-2026 21:19 | 429696 | ||
| 44027_TS_DEWT_102022.nc | 16-Jan-2026 21:22 | 429641 | ||
| 44027_TS_DEWT_112004.nc | 24-Dec-2024 04:38 | 419316 | ||
| 44027_TS_DEWT_112005.nc | 16-Jan-2026 19:37 | 429680 | ||
| 44027_TS_DEWT_112006.nc | 16-Jan-2026 20:36 | 428901 | ||
| 44027_TS_DEWT_112007.nc | 16-Jan-2026 20:41 | 429556 | ||
| 44027_TS_DEWT_112008.nc | 16-Jan-2026 20:45 | 429699 | ||
| 44027_TS_DEWT_112009.nc | 16-Jan-2026 20:48 | 429675 | ||
| 44027_TS_DEWT_112011.nc | 16-Jan-2026 20:51 | 429694 | ||
| 44027_TS_DEWT_112013.nc | 16-Jan-2026 20:57 | 429372 | ||
| 44027_TS_DEWT_112014.nc | 16-Jan-2026 21:01 | 429688 | ||
| 44027_TS_DEWT_112015.nc | 16-Jan-2026 21:02 | 429695 | ||
| 44027_TS_DEWT_112016.nc | 16-Jan-2026 21:07 | 429688 | ||
| 44027_TS_DEWT_112018.nc | 16-Jan-2026 21:12 | 429667 | ||
| 44027_TS_DEWT_112019.nc | 16-Jan-2026 21:14 | 429694 | ||
| 44027_TS_DEWT_112021.nc | 16-Jan-2026 21:19 | 429908 | ||
| 44027_TS_DEWT_112022.nc | 16-Jan-2026 21:22 | 429916 | ||
| 44027_TS_DEWT_122004.nc | 24-Dec-2024 04:38 | 428928 | ||
| 44027_TS_DEWT_122005.nc | 16-Jan-2026 19:37 | 429890 | ||
| 44027_TS_DEWT_122006.nc | 16-Jan-2026 20:36 | 429405 | ||
| 44027_TS_DEWT_122007.nc | 16-Jan-2026 20:41 | 429416 | ||
| 44027_TS_DEWT_122008.nc | 16-Jan-2026 20:45 | 429914 | ||
| 44027_TS_DEWT_122009.nc | 16-Jan-2026 20:48 | 429908 | ||
| 44027_TS_DEWT_122011.nc | 16-Jan-2026 20:52 | 429890 | ||
| 44027_TS_DEWT_122013.nc | 16-Jan-2026 20:57 | 429912 | ||
| 44027_TS_DEWT_122014.nc | 16-Jan-2026 21:01 | 429910 | ||
| 44027_TS_DEWT_122015.nc | 16-Jan-2026 21:03 | 429916 | ||
| 44027_TS_DEWT_122016.nc | 16-Jan-2026 21:07 | 429912 | ||
| 44027_TS_DEWT_122018.nc | 16-Jan-2026 21:12 | 429910 | ||
| 44027_TS_DEWT_122019.nc | 16-Jan-2026 21:15 | 429918 | ||
| 44027_TS_DEWT_122021.nc | 16-Jan-2026 21:19 | 429888 | ||
| 44027_TS_DEWT_122022.nc | 16-Jan-2026 21:23 | 429912 | ||